Location: Unspecified
(0.0000°N, 0.0000°E)
Time: 08:27:50
(UTC+00:00)

N. Korean satellite - Pass Details

Date: 12 January 2017
Orbit: 459 x 517 km, 97.2° (Epoch: 20 October)

Event Time Altitude Azimuth Distance (km) Brightness Sun altitude
Rises 18:32:13 0° 158° (SSE) 2,487 10.2 -5.5°
Reaches altitude 10° 18:34:20 10° 151° (SSE) 1,605 9.1 -6.0°
Maximum altitude 18:37:36 41° 79° (E) 678 6.8 -6.8°
Drops below altitude 10° 18:40:50 10° 8° (N) 1,594 8.9 -7.5°
Sets 18:42:56 0° 0° (N) 2,466 9.9 -8.0°
